Weather History for KFET - January, 2013

Change the Weather History Date:

Saturday, January 26, 2013

  Actual Average Record
Temperature  
Mean Temperature 32 °F -  
Max Temperature 48 °F 32 °F 66 °F (2002)
Min Temperature 17 °F 12 °F -18 °F (1950)
Degree Days  
Heating Degree Days 32    
Moisture  
Dew Point 23 °F    
Average Humidity 71    
Maximum Humidity 89    
Minimum Humidity 46    
Precipitation  
Precipitation 0.00 in - - ()
Sea Level Pressure  
Sea Level Pressure 30.12 in    
Wind  
Wind Speed 7 mph (ESE)    
Max Wind Speed 16 mph    
Max Gust Speed 23 mph    
Visibility 10 miles    
Events      
Averages and records for this station are not official NWS values.
T = Trace of Precipitation, MM = Missing Value Source: NWS Daily Summary

Daily Weather History Graph

Daily Weather History Graph

Search for Another Location

Airport or City:

Trip Planner

Search our weather history database for the weather conditions in past years. The results will help you decide how hot, cold, wet, or windy it might be!

Date:

Astronomy

Jan. 26, 2013 Rise Set
Actual Time 7:42 AM CST 5:35 PM CST
Civil Twilight 7:13 AM CST 6:04 PM CST
Nautical Twilight 6:39 AM CST 6:38 PM CST
Astronomical Twilight 6:06 AM CST 7:10 PM CST
Moon 5:31 PM CST (1/26) 7:01 AM CST (1/26)
Length of Visible Light 10h 51m
Length of Day
9h 52m
Full, 100% of the Moon is Illuminated
Jan 26
Full
Jan 26
Full
Feb 3
Last Quarter
Feb 10
New
Feb 17
First Quarter

Hourly Weather History & Observations

Time (CST) Temp. Windchill Dew Point Humidity Pressure Visibility Wind Dir Wind Speed Gust Speed Precip Events Conditions
12:15 AM 23.4 °F - 19.2 °F 84% 30.24 in 10.0 mi Calm Calm - N/A   Clear
12:35 AM 23.0 °F - 18.7 °F 84% 30.24 in 10.0 mi Calm Calm - N/A   Clear
12:55 AM 22.6 °F - 18.5 °F 84% 30.24 in 10.0 mi Calm Calm - N/A   Clear
1:15 AM 22.1 °F 17.4 °F 18.5 °F 86% 30.24 in 10.0 mi NE 3.5 mph - N/A   Clear
1:35 AM 21.6 °F 15.3 °F 18.3 °F 87% 30.24 in 10.0 mi ENE 4.6 mph - N/A   Clear
1:55 AM 21.6 °F - 18.1 °F 87% 30.24 in 10.0 mi Calm Calm - N/A   Clear
2:15 AM 21.2 °F 14.9 °F 17.8 °F 87% 30.24 in 10.0 mi ENE 4.6 mph - N/A   Clear
2:35 AM 21.2 °F 16.4 °F 18.0 °F 87% 30.24 in 10.0 mi ENE 3.5 mph - N/A   Clear
2:55 AM 21.0 °F 14.6 °F 18.1 °F 89% 30.24 in 10.0 mi East 4.6 mph - N/A   Clear
3:15 AM 20.7 °F 15.8 °F 18.0 °F 89% 30.23 in 10.0 mi East 3.5 mph - N/A   Clear
3:35 AM 20.7 °F 14.2 °F 17.8 °F 89% 30.23 in 10.0 mi East 4.6 mph - N/A   Clear
3:55 AM 20.3 °F 13.8 °F 17.4 °F 89% 30.22 in 10.0 mi East 4.6 mph - N/A   Clear
4:15 AM 20.3 °F 12.5 °F 17.2 °F 88% 30.21 in 10.0 mi East 5.8 mph - N/A   Clear
4:35 AM 19.9 °F 12.1 °F 16.7 °F 87% 30.21 in 10.0 mi East 5.8 mph - N/A   Clear
4:55 AM 19.4 °F 14.3 °F 16.3 °F 88% 30.21 in 10.0 mi East 3.5 mph - N/A   Clear
5:15 AM 19.2 °F 12.5 °F 16.0 °F 87% 30.22 in 10.0 mi East 4.6 mph - N/A   Clear
5:35 AM 19.0 °F 12.3 °F 15.8 °F 87% 30.21 in 10.0 mi East 4.6 mph - N/A   Clear
5:55 AM 19.0 °F 11.1 °F 15.8 °F 87% 30.21 in 10.0 mi East 5.8 mph - N/A   Clear
6:15 AM 18.9 °F 10.8 °F 15.6 °F 87% 30.21 in 10.0 mi East 5.8 mph - N/A   Clear
6:35 AM 18.5 °F 9.3 °F 15.4 °F 88% 30.21 in 10.0 mi East 6.9 mph - N/A   Clear
6:55 AM 18.3 °F 10.2 °F 14.9 °F 86% 30.21 in 10.0 mi East 5.8 mph - N/A   Clear
7:15 AM 18.1 °F 8.9 °F 14.5 °F 86% 30.22 in 10.0 mi East 6.9 mph - N/A   Clear
7:35 AM 17.6 °F 8.2 °F 14.0 °F 86% 30.21 in 10.0 mi East 6.9 mph - N/A   Clear
7:55 AM 17.6 °F 8.2 °F 14.0 °F 86% 30.21 in 10.0 mi East 6.9 mph - N/A   Clear
8:15 AM 18.1 °F 8.9 °F 14.5 °F 86% 30.22 in 10.0 mi East 6.9 mph - N/A   Clear
8:35 AM 19.2 °F 8.4 °F 14.9 °F 83% 30.21 in 10.0 mi ESE 9.2 mph - N/A   Clear
8:55 AM 20.3 °F 9.8 °F 15.8 °F 83% 30.21 in 10.0 mi ESE 9.2 mph - N/A   Clear
9:15 AM 21.9 °F 11.0 °F 16.9 °F 81% 30.21 in 10.0 mi ESE 10.4 mph - N/A   Clear
9:35 AM 23.0 °F 11.7 °F 17.2 °F 79% 30.21 in 10.0 mi ESE 11.5 mph 17.3 mph N/A   Clear
9:55 AM 24.6 °F 13.8 °F 18.9 °F 79% 30.20 in 10.0 mi SE 11.5 mph - N/A   Clear
10:15 AM 26.4 °F 14.5 °F 20.1 °F 77% 30.20 in 10.0 mi SE 15.0 mph - N/A   Clear
10:35 AM 28.2 °F 17.7 °F 21.0 °F 74% 30.20 in 10.0 mi SE 12.7 mph 19.6 mph N/A   Clear
10:55 AM 29.5 °F 19.3 °F 22.1 °F 74% 30.19 in 10.0 mi SSE 12.7 mph - N/A   Clear
11:15 AM 31.5 °F 22.3 °F 23.4 °F 72% 30.19 in 10.0 mi SE 11.5 mph 17.3 mph N/A   Clear
11:35 AM 32.9 °F 23.7 °F 24.4 °F 71% 30.18 in 10.0 mi SSE 12.7 mph - N/A   Clear
11:55 AM 34.7 °F 25.5 °F 25.2 °F 68% 30.17 in 10.0 mi SSE 13.8 mph 20.7 mph N/A   Clear
12:15 PM 36.5 °F 27.4 °F 26.2 °F 66% 30.15 in 10.0 mi SSE 15.0 mph 23.0 mph N/A   Scattered Clouds
12:35 PM 37.8 °F 29.0 °F 27.0 °F 65% 30.13 in 10.0 mi SE 15.0 mph - N/A   Mostly Cloudy
12:55 PM 36.5 °F 28.2 °F 26.6 °F 67% 30.12 in 10.0 mi SSE 12.7 mph 20.7 mph N/A   Scattered Clouds
1:15 PM 39.6 °F 31.3 °F 27.7 °F 62% 30.10 in 10.0 mi SSE 15.0 mph - N/A   Clear
1:35 PM 41.4 °F 34.3 °F 28.2 °F 60% 30.09 in 10.0 mi SSE 12.7 mph - N/A   Clear
1:55 PM 45.3 °F 38.4 °F 28.4 °F 52% 30.08 in 10.0 mi SSE 16.1 mph - N/A   Clear
2:15 PM 46.0 °F 40.6 °F 28.4 °F 50% 30.08 in 10.0 mi SSE 11.5 mph 16.1 mph N/A   Clear
2:35 PM 46.4 °F 40.1 °F 28.4 °F 50% 30.07 in 10.0 mi SE 15.0 mph - N/A   Clear
2:55 PM 47.1 °F - 28.8 °F 49% 30.06 in 10.0 mi SE 12.7 mph - N/A   Clear
3:15 PM 47.7 °F - 28.4 °F 47% 30.04 in 10.0 mi SE 13.8 mph - N/A   Clear
3:35 PM 48.6 °F - 28.4 °F 46% 30.04 in 10.0 mi SE 12.7 mph - N/A   Clear
3:55 PM 48.6 °F - 28.4 °F 46% 30.03 in 10.0 mi SE 15.0 mph - N/A   Clear
4:15 PM 48.2 °F - 28.2 °F 46% 30.03 in 10.0 mi SE 13.8 mph - N/A   Clear
4:35 PM 48.2 °F - 28.2 °F 46% 30.02 in 10.0 mi SE 11.5 mph 16.1 mph N/A   Clear
4:55 PM 48.0 °F - 27.9 °F 46% 30.01 in 10.0 mi SE 12.7 mph 17.3 mph N/A   Clear
5:15 PM 46.2 °F 40.8 °F 27.9 °F 49% 30.01 in 10.0 mi SE 11.5 mph - N/A   Clear
5:35 PM 44.8 °F 39.4 °F 28.0 °F 52% 30.01 in 10.0 mi ESE 10.4 mph - N/A   Clear
5:55 PM 43.0 °F 36.4 °F 28.4 °F 56% 30.00 in 10.0 mi ESE 12.7 mph - N/A   Clear
6:15 PM 41.9 °F 35.4 °F 28.4 °F 59% 30.01 in 10.0 mi ESE 11.5 mph - N/A   Clear
6:35 PM 41.0 °F 34.7 °F 28.4 °F 61% 30.01 in 10.0 mi SE 10.4 mph - N/A   Clear
6:55 PM 40.8 °F 33.7 °F 28.2 °F 61% 30.01 in 10.0 mi SE 12.7 mph - N/A   Clear
7:15 PM 41.2 °F 33.4 °F 28.0 °F 60% 30.00 in 10.0 mi SE 15.0 mph 19.6 mph N/A   Clear
7:35 PM 40.3 °F 33.0 °F 28.0 °F 62% 30.00 in 10.0 mi SE 12.7 mph - N/A   Clear
7:55 PM 40.1 °F 32.7 °F 27.9 °F 62% 30.00 in 10.0 mi SE 12.7 mph - N/A   Clear
8:15 PM 40.3 °F 33.0 °F 28.0 °F 62% 30.00 in 10.0 mi SE 12.7 mph 18.4 mph N/A   Clear
8:35 PM 40.1 °F 32.7 °F 27.9 °F 62% 30.00 in 10.0 mi SE 12.7 mph - N/A   Clear
8:55 PM 39.4 °F 32.3 °F 27.9 °F 63% 30.01 in 10.0 mi SE 11.5 mph - N/A   Clear
9:15 PM 39.2 °F 32.0 °F 28.0 °F 64% 30.00 in 10.0 mi SE 11.5 mph - N/A   Clear
9:35 PM 39.4 °F 32.3 °F 27.9 °F 63% 30.00 in 10.0 mi SE 11.5 mph - N/A   Clear
9:55 PM 39.2 °F 32.0 °F 27.9 °F 64% 29.99 in 10.0 mi SE 11.5 mph - N/A   Clear
10:15 PM 39.2 °F 31.6 °F 27.9 °F 64% 29.99 in 10.0 mi SE 12.7 mph 18.4 mph N/A   Clear
10:35 PM 39.7 °F 31.5 °F 27.5 °F 62% 29.99 in 10.0 mi SE 15.0 mph - N/A   Clear
10:55 PM 39.2 °F 31.2 °F 27.5 °F 63% 29.99 in 10.0 mi SE 13.8 mph 20.7 mph N/A   Clear
11:15 PM 38.7 °F 30.9 °F 27.3 °F 64% 29.99 in 10.0 mi SE 12.7 mph - N/A   Clear
11:35 PM 38.5 °F 29.9 °F 27.3 °F 64% 29.99 in 10.0 mi SSE 15.0 mph 20.7 mph N/A   Scattered Clouds
11:55 PM 38.8 °F 30.8 °F 27.5 °F 64% 29.98 in 10.0 mi SE 13.8 mph - N/A   Overcast